Weather

DAILY 7 DAY TOTAL
onrain

Note: Some stations are located near irrigated fields and may also report irrigation

Alliston Mount Forest Blyth Guelph Grand Bend Strathroy Woodstock Belmont Simcoe Leamington Chatham West Lorne






Woodstock Outdoor FS - Historical Weather Data
Date Max Temp (°C) Min Temp (°C) Avg Temp (°C) Rain (mm) 7Day Rain(mm) Total Rain(mm) Avg RH (%)
9/22/2018 16.2 5.8 11.1 0.0 0.2 462.0 76.0
9/21/2018 27.2 14.0 21.0 0.0 0.4 462.0 77.3
9/20/2018 19.7 10.4 15.1 0.0 0.4 462.0 89.2
9/19/2018 22.8 11.0 16.1 0.0 0.4 462.0 83.3
9/18/2018 24.9 14.0 17.9 0.2 0.8 462.0 88.8
9/17/2018 25.1 14.2 19.3 0.0 0.6 461.8 88.3
9/16/2018 28.3 14.4 20.5 0.0 0.6 461.8 83.7
9/15/2018 29.6 14.3 20.9 0.2 0.6 461.8 83.6
9/14/2018 27.1 14.0 19.7 0.0 0.4 461.6 87.5
9/13/2018 21.2 13.1 16.7 0.0 0.4 461.6 92.5
9/12/2018 20.4 9.0 14.4 0.4 0.4 461.6 89.3
9/11/2018 20.7 10.6 13.6 0.0 0.0 461.2 89.1
9/10/2018 12.0 10.5 11.3 0.0 0.8 461.2 99.5
9/9/2018 13.7 8.3 11.1 0.0 25.0 461.2 76.8
9/8/2018 15.7 8.3 12.5 0.0 26.8 461.2 75.9
9/7/2018 21.5 12.6 16.7 0.0 27.0 461.2 77.8
9/6/2018 22.6 15.9 19.0 0.0 27.0 461.2 88.6
9/5/2018 28.4 17.0 22.8 0.0 27.0 461.2 82.9
9/4/2018 26.6 15.2 20.0 0.8 27.4 461.2 89.6
9/3/2018 26.2 16.9 20.1 24.2 26.6 460.4 91.7
9/2/2018 25.4 18.8 21.4 1.8 6.4 436.2 89.7
9/1/2018 25.4 11.6 18.8 0.2 4.6 434.4 87.4
8/31/2018 23.2 9.4 15.8 0.0 28.0 434.2 80.4
8/30/2018 19.1 11.6 15.3 0.0 28.0 434.2 83.4
8/29/2018 23.9 15.3 20.3 0.4 28.0 434.2 87.1
8/28/2018 25.6 18.5 21.6 0.0 53.6 433.8 87.6
8/27/2018 21.6 13.2 16.7 4.0 72.6 433.8 92.6
8/26/2018 18.0 8.3 11.8 0.0 68.6 429.8 89.5
8/25/2018 22.4 16.8 19.1 23.6 68.6 429.8 88.0
8/24/2018 24.5 11.5 18.5 0.0 51.4 406.2 77.2
8/23/2018 24.6 10.0 17.3 0.0 62.0 406.2 76.1
8/22/2018 18.8 10.5 15.8 26.0 66.4 406.2 87.8
8/21/2018 23.1 17.3 20.3 19.0 40.4 380.2 95.4
8/20/2018 24.8 13.8 19.5 0.0 21.4 361.2 88.9
8/19/2018 26.0 13.8 19.5 0.0 21.4 361.2 81.2
8/18/2018 26.3 16.6 21.0 6.4 21.4 361.2 83.4
8/17/2018 26.4 20.8 22.6 10.6 15.0 354.8 93.8
8/16/2018 26.6 17.1 21.2 4.4 4.4 344.2 95.6
8/15/2018 27.8 16.3 22.4 0.0 1.4 339.8 83.3
8/14/2018 28.4 16.3 21.9 0.0 41.6 339.8 79.3
8/13/2018 27.8 14.2 20.9 0.0 43.2 339.8 77.6
8/12/2018 28.2 14.8 21.0 0.0 62.0 339.8 76.1
8/11/2018 26.9 11.2 19.9 0.0 62.0 339.8 75.8
8/10/2018 26.0 14.5 20.1 0.0 62.0 339.8 78.4
8/9/2018 26.8 13.3 19.7 1.4 62.0 339.8 88.2
8/8/2018 24.0 16.0 20.3 40.2 60.6 338.4 92.0
8/7/2018 27.6 19.4 22.7 1.6 20.6 298.2 86.2
8/6/2018 29.1 19.4 22.5 18.8 19.0 296.6 87.9
8/5/2018 30.3 16.5 23.7 0.0 0.4 277.8 82.1
8/4/2018 28.7 15.1 22.0 0.0 1.4 277.8 79.6
8/3/2018 27.7 14.4 21.3 0.0 1.6 277.8 80.1
8/2/2018 25.5 15.3 20.4 0.0 5.0 277.8 85.4
8/1/2018 24.0 17.7 20.9 0.2 15.0 277.8 91.4
7/31/2018 25.6 15.5 20.7 0.0 14.8 277.6 84.9
7/30/2018 26.9 12.9 19.7 0.2 37.6 277.6 81.5
7/29/2018 24.6 10.7 17.6 1.0 37.4 277.4 86.4
7/28/2018 22.2 12.7 17.4 0.2 56.4 276.4 83.1
7/27/2018 23.3 13.5 18.5 3.4 64.4 276.2 83.1
7/26/2018 26.9 13.4 19.6 10.0 78.0 272.8 88.5
7/25/2018 27.1 15.6 21.8 0.0 68.0 262.8 81.3
7/24/2018 26.9 16.9 21.3 22.8 68.0 262.8 87.9
7/23/2018 26.6 17.7 22.1 0.0 45.2 240.0 86.5
7/22/2018 19.4 14.3 17.0 20.0 61.6 240.0 96.9
7/21/2018 24.6 18.6 20.6 8.2 41.6 220.0 86.2
7/20/2018 28.0 13.1 21.0 17.0 35.2 211.8 75.1
7/19/2018 26.5 8.3 17.8 0.0 18.2 194.8 68.4
7/18/2018 24.5 10.5 18.0 0.0 18.2 194.8 69.6
7/17/2018 24.2 14.7 20.2 0.0 18.2 194.8 68.0
7/16/2018 30.8 19.1 23.4 16.4 18.2 194.8 85.9
7/15/2018 31.8 18.1 24.9 0.0 1.8 178.4 76.4
7/14/2018 26.3 18.0 21.9 1.8 1.8 178.4 82.8
7/13/2018 29.4 15.1 22.9 0.0 0.0 176.6 58.9
7/12/2018 28.2 10.9 20.7 0.0 0.0 176.6 65.6
7/11/2018 27.6 12.7 20.7 0.0 12.6 176.6 57.6
7/10/2018 27.9 16.8 22.5 0.0 12.6 176.6 57.8
7/9/2018 29.6 11.0 21.2 0.0 12.6 176.6 70.0
7/8/2018 27.0 9.5 19.1 0.0 12.6 176.6 65.9
7/7/2018 25.6 8.0 18.1 0.0 12.6 176.6 58.8
7/6/2018 23.2 12.6 18.5 0.0 12.6 176.6 60.3
7/5/2018 30.6 18.8 24.0 12.6 12.6 176.6 90.0
7/4/2018 32.7 17.6 25.2 0.0 0.0 164.0 67.7
7/3/2018 29.7 13.6 22.5 0.0 11.6 164.0 64.3
7/2/2018 29.5 17.3 25.2 0.0 11.6 164.0 76.4
7/1/2018 30.6 18.8 25.9 0.0 11.6 164.0 74.5
6/30/2018 32.3 18.9 25.3 0.0 57.2 164.0 81.7
6/29/2018 30.2 14.5 23.5 0.0 63.6 164.0 74.5
6/28/2018 26.5 18.2 21.9 0.0 73.0 164.0 80.9
6/27/2018 21.9 14.4 18.6 11.6 73.0 164.0 95.5
6/26/2018 24.5 8.7 17.1 0.0 63.8 152.4 67.6
6/25/2018 23.0 10.9 17.2 0.0 63.8 152.4 67.7
6/24/2018 19.8 15.3 17.3 45.6 67.0 152.4 93.7
6/23/2018 21.9 15.9 17.8 6.4 21.4 106.8 96.9
6/22/2018 21.9 10.9 15.3 9.4 15.0 100.4 73.3
6/21/2018 23.8 12.2 17.9 0.0 5.6 91.0 66.5
6/20/2018 23.0 14.0 17.9 2.4 5.6 91.0 77.9
6/19/2018 26.0 14.7 20.6 0.0 11.8 88.6 70.9
6/18/2018 30.1 19.8 24.5 3.2 11.8 88.6 80.8
6/17/2018 30.7 14.5 23.4 0.0 8.6 85.4 72.6
6/16/2018 25.4 13.0 19.5 0.0 8.6 85.4 62.8
6/15/2018 25.9 7.5 17.6 0.0 9.4 85.4 56.6
6/14/2018 23.5 12.0 18.1 0.0 9.4 85.4 51.1
6/13/2018 26.9 13.8 20.6 8.6 9.4 85.4 73.4
6/12/2018 26.6 7.6 18.6 0.0 0.8 76.8 67.4
6/11/2018 22.5 11.2 17.2 0.0 2.2 76.8 42.6
6/10/2018 22.0 14.9 17.9 0.0 3.2 76.8 54.1
6/9/2018 20.0 11.9 16.6 0.8 7.4 76.8 69.8
6/8/2018 26.7 10.9 18.6 0.0 6.6 76.0 66.1
6/7/2018 23.2 9.3 16.7 0.0 6.6 76.0 71.8
6/6/2018 16.8 7.1 11.3 0.0 8.6 76.0 75.1
6/5/2018 12.8 9.0 10.7 1.4 13.2 76.0 79.4
6/4/2018 18.8 11.6 14.8 1.0 11.8 74.6 75.7
6/3/2018 23.0 12.8 17.6 4.2 10.8 73.6 84.5
6/2/2018 20.1 11.5 15.8 0.0 6.6 69.4 80.4
6/1/2018 26.9 17.1 22.1 0.0 6.6 69.4 79.0
5/31/2018 28.2 19.6 23.5 2.0 6.6 69.4 80.2
5/30/2018 29.3 17.6 23.5 4.6 4.6 67.4 59.5
5/29/2018 28.1 16.9 22.9 0.0 0.0 62.8 63.5
5/28/2018 31.0 17.0 24.6 0.0 6.4 62.8 64.3
5/27/2018 28.6 14.5 21.5 0.0 6.4 62.8 78.1
5/26/2018 27.3 14.5 21.1 0.0 6.6 62.8 62.4
5/25/2018 28.1 11.7 20.4 0.0 11.8 62.8 50.6
5/24/2018 27.1 8.0 18.6 0.0 11.8 62.8 58.4
5/23/2018 24.5 10.2 17.0 0.0 11.8 62.8 67.9
5/22/2018 17.8 11.2 14.1 6.4 11.8 62.8 92.2
5/21/2018 21.2 3.2 13.7 0.0 27.0 56.4 63.6
5/20/2018 19.0 9.1 13.8 0.2 27.0 56.4 85.5
5/19/2018 21.2 8.7 14.8 5.2 26.8 56.2 83.7
5/18/2018 16.0 9.3 12.7 0.0 21.6 51.0 40.3
5/17/2018 26.0 9.8 18.5 0.0 22.4 51.0 63.5
5/16/2018 24.0 7.3 16.0 0.0 28.8 51.0 65.8
5/15/2018 21.0 10.5 16.0 21.6 30.0 51.0 85.7
5/14/2018 22.4 7.2 14.1 0.0 8.4 29.4 87.6
5/13/2018 21.5 5.1 13.0 0.0 8.4 29.4 61.0
5/12/2018 15.8 5.4 9.1 0.0 10.4 29.4 65.1
5/11/2018 10.1 1.3 6.0 0.8 10.4 29.4 69.1
5/10/2018 18.1 5.2 14.6 6.4 23.6 28.6 77.3
5/9/2018 25.3 5.9 16.6 1.2 22.2 22.2 60.9
5/8/2018 22.8 3.2 13.9 0.0 21.0 21.0 53.8
5/7/2018 17.9 7.2 12.3 0.0 21.0 21.0 55.6
5/6/2018 21.9 8.8 13.5 2.0 21.0 21.0 73.0
5/5/2018 21.9 6.0 13.9 0.0 19.0 19.0 69.9
5/4/2018 22.4 5.9 14.8 14.0 19.0 19.0 84.3
5/3/2018 19.7 12.5 16.4 5.0 6.8 5.0 93.7
5/2/2018 25.5 10.4 19.1 0.0 1.8 0.0 52.3
5/1/2018 23.4 5.1 15.3 0.0 9.4 0.0 42.3